TimeCDT,TemperatureF,Dew PointF,Humidity,Sea Level PressureIn,VisibilityMPH,Wind Direction,Wind SpeedMPH,Gust SpeedMPH,PrecipitationIn,Events,Conditions,WindDirDegrees,DateUTC
12:52 AM,64.0,55.9,75,30.06,10.0,North,5.8,-,N/A,,Partly Cloudy,10,2013-10-20 05:52:00
1:52 AM,63.0,54.0,72,30.05,10.0,NNW,3.5,-,N/A,,Clear,340,2013-10-20 06:52:00
2:52 AM,63.0,55.0,75,30.04,10.0,NW,5.8,-,N/A,,Partly Cloudy,310,2013-10-20 07:52:00
3:52 AM,62.1,53.1,72,30.03,10.0,WNW,5.8,-,N/A,,Partly Cloudy,300,2013-10-20 08:52:00
4:52 AM,61.0,52.0,72,30.02,10.0,NW,6.9,-,N/A,,Clear,310,2013-10-20 09:52:00
5:52 AM,60.1,52.0,75,30.01,10.0,NNW,4.6,-,N/A,,Clear,330,2013-10-20 10:52:00
6:52 AM,60.1,52.0,75,30.02,10.0,NNW,4.6,-,N/A,,Clear,330,2013-10-20 11:52:00
7:52 AM,62.1,52.0,70,30.01,10.0,North,4.6,-,N/A,,Overcast,360,2013-10-20 12:52:00
8:52 AM,63.0,54.0,72,30.03,10.0,NNW,6.9,-,N/A,,Overcast,340,2013-10-20 13:52:00
9:52 AM,66.9,55.9,68,30.04,10.0,North,8.1,-,N/A,,Clear,10,2013-10-20 14:52:00
10:52 AM,75.0,60.1,60,30.03,10.0,NNE,9.2,-,N/A,,Clear,20,2013-10-20 15:52:00
11:52 AM,80.1,63.0,56,30.02,10.0,East,13.8,-,N/A,,Mostly Cloudy,80,2013-10-20 16:52:00
12:52 PM,81.0,63.0,54,30.00,10.0,ENE,11.5,-,N/A,,Clear,70,2013-10-20 17:52:00
1:52 PM,82.0,63.0,52,29.96,10.0,ESE,10.4,16.1,N/A,,Partly Cloudy,120,2013-10-20 18:52:00
2:52 PM,81.0,62.1,52,29.93,10.0,ESE,10.4,-,N/A,,Mostly Cloudy,110,2013-10-20 19:52:00
3:52 PM,81.0,63.0,54,29.91,10.0,ESE,9.2,-,N/A,,Mostly Cloudy,120,2013-10-20 20:52:00
4:52 PM,80.1,64.0,58,29.90,10.0,East,10.4,-,N/A,,Overcast,80,2013-10-20 21:52:00
5:52 PM,78.1,63.0,60,29.89,10.0,ESE,10.4,-,N/A,,Overcast,110,2013-10-20 22:52:00
6:52 PM,75.9,63.0,64,29.88,10.0,East,13.8,-,N/A,,Clear,100,2013-10-20 23:52:00
7:52 PM,73.0,64.0,73,29.89,10.0,East,8.1,-,N/A,,Clear,100,2013-10-21 00:52:00
8:52 PM,72.0,64.0,76,29.90,10.0,East,6.9,-,N/A,,Clear,80,2013-10-21 01:52:00
9:52 PM,71.1,64.0,78,29.91,10.0,NE,3.5,-,N/A,,Clear,50,2013-10-21 02:52:00
10:52 PM,72.0,66.0,81,29.92,10.0,ESE,4.6,-,N/A,,Overcast,110,2013-10-21 03:52:00
11:52 PM,73.9,66.0,76,29.91,10.0,East,5.8,-,N/A,,Overcast,100,2013-10-21 04:52:00